Regional Weather Roundup
Issued by NWS

Home | Current Version | Previous Version | Text Only | Print | Product List | Glossary Off
Versions: 1 2 3 4 5 6 7 8 9 10 11 12 13 14 15 16 17 18 19 20 21 22 23 24 25 26 27 28 29 30 31 32 33 34 35 36 37 38 39 40 41 42 43 44 45 46 47 48 49 50

000
ASUS43 KBIS 282310
RWRND

NORTH DAKOTA REGIONAL WEATHER ROUNDUP
NATIONAL WEATHER SERVICE BISMARCK ND
500 PM CST WED JAN 28 2015

NOTE: "FAIR" INDICATES FEW OR NO CLOUDS BELOW 12,000 FEET WITH NO
SIGNIFICANT WEATHER AND/OR OBSTRUCTIONS TO VISIBILITY.


NDZ001>003-009>011-017-290000-
NORTHWEST NORTH DAKOTA

CITY           SKY/WX    TMP DP  RH WIND       PRES   REMARKS
WILLISTON      CLOUDY    34  29  82 NW17G24   30.15R
MINOT          CLOUDY    28  25  88 NW20G29   30.02R WCI  15
MINOT AFB      CLOUDY    29  29 100 NW20      30.03R WCI  16
$$

NDZ018>021-031>035-040>046-290000-
SOUTHWEST NORTH DAKOTA

CITY           SKY/WX    TMP DP  RH WIND       PRES   REMARKS
BISMARCK       CLOUDY    33  28  81 NW23G32   30.00R
DICKINSON      CLOUDY    32  28  85 NW23G33   30.05R WCI  19
GARRISON         N/A     30  28  92 NW29G37   30.02R WCI  15
HETTINGER ARPT CLOUDY    32  28  85 NW29G38   30.04R WCI  18
$$

NDZ004>008-012>016-024-026-027-054-290000-
NORTHEAST NORTH DAKOTA

CITY           SKY/WX    TMP DP  RH WIND       PRES   REMARKS
GRAND FORKS    LGT RAIN  34  32  92 N20       29.84R FOG
GRND FRKS AFB  CLOUDY    33  31  93 N16G23    29.86R
DEVILS LAKE    CLOUDY    28  25  86 NW22G28   29.91R WCI  15
$$

NDZ022-023-025-028>030-036>039-047>053-290000-
SOUTHEAST NORTH DAKOTA

CITY           SKY/WX    TMP DP  RH WIND       PRES   REMARKS
FARGO          CLOUDY    36  32  85 W13       29.81R FOG
JAMESTOWN      CLOUDY    32  30  92 NW23G30   29.86R WCI  19
$$



USA.gov is the U.S. government's official web portal to all federal, state and local government web resources and services.